IRIDIUM 141 (43077 NORAD) Tracking and Keplerian Element Data

This shows tracking and keplerian element data for the satellite.

Feedback or suggestion? Click here.




ElementValue
Catalog43077
NameIRIDIUM 141
Epoch Orbit37274
Epoch Day34.84577741
Epoch Year2025
RAAN170.2884
Inclination86.4024
Eccentricity0.0001798
Argument of Perigee105.4096
Mean Anonmoly254.7298
Mean Motion14.34218623
Decay Rate6.75E-06
L11 43077U 17083H 25034.84577741 .00000675 00000+0 23393-3 0 9997
L22 43077 86.4024 170.2884 0001798 105.4096 254.7298 14.34218623372741



Live tracking and technical data element details for IRIDIUM 141 (NORAD 43077). IRIDIUM 141 can be tracked NOW for your location showing map with azimuth and elevation plus other details from your city location.







IsCatalogInMostPopularTable: catalog: 43077, numindb: 708
Update: records affected: 1



GetName: 43077 IRIDIUM 141

Hit Count: updated at: Thu, 13 Feb 2025 15:54:11 GMT